Location: Grundy Observatory
(40.0525°N, 76.3328°W)
Time: 00:51:54
(UTC-04:00)

Daily predictions for brighter satellites

Satellite Brightness Start Highest point End
(mag) Time Altitude Azimuth Time Altitude Azimuth Time Altitude Azimuth
Lacrosse 5 rocket 3.7 00:08:17 16° NNE 00:08:17 16° NNE 00:09:11 10° NNE
Meteor 1-11 Rocket 4.2 00:12:12 54° W 00:12:40 55° WNW 00:18:22 10° N
Lacrosse 5 2.4 00:17:36 56° N 00:17:36 56° N 00:22:00 10° NE
Iridium 4 Rocket 4.0 00:12:07 10° N 00:17:55 62° W 00:17:58 62° W
Cosmos 1503 Rocket 4.4 00:17:24 10° NNW 00:21:42 60° NW 00:21:42 60° NW
Meteor 2-15 Rocket 4.5 00:27:30 10° NNW 00:33:22 70° WNW 00:33:22 70° WNW
NOSS 3-1 (A) 3.9 00:27:43 10° NW 00:35:23 79° WSW 00:36:15 72° S
Cosmos 1447 Rocket 4.4 00:34:06 10° N 00:39:58 78° NE 00:39:58 78° NE
Cosmos 2369 Rocket 2.6 00:42:12 58° NW 00:42:12 58° NW 00:47:34 10° NNE
H-2A R/B 3.9 00:45:13 10° N 00:48:06 39° N 00:48:06 39° N
Cosmos 2100 Rocket 4.2 00:52:43 65° ENE 00:52:43 65° ENE 00:58:39 10° NNE
CZ-2C R/B 3.6 00:48:11 10° NNE 00:51:53 40° NE 00:51:53 40° NE
Cosmos 2219 4.4 00:49:25 10° N 00:54:27 32° ENE 00:54:56 32° ENE
MOS 1-B Rocket 4.0 00:55:20 82° NE 00:55:20 82° NE 01:01:57 10° NNW
ATLAS 2AS CENTAUR R/B 3.3 00:48:41 10° NNW 00:56:45 62° NE 00:58:45 49° ESE
Cosmos 1818 4.1 01:06:45 58° N 01:06:45 58° N 01:11:15 10° NNE
ATLAS 3B CENTAUR R/B 4.5 01:07:02 47° SSE 01:07:02 47° SSE 01:31:21 10° E
Cosmos 2061 Rocket 4.0 01:08:13 78° NE 01:08:13 78° NE 01:14:21 10° N
Cosmos 1459 Rocket 4.0 01:09:16 74° NNE 01:09:16 74° NNE 01:14:49 10° N
Cosmos 2016 Rocket 4.2 01:11:31 59° ENE 01:11:31 59° ENE 01:16:58 10° NNE
Cosmos 1943 Rocket 2.5 01:18:38 61° NNW 01:18:38 61° NNW 01:23:25 10° NNE
Cosmos 1802 Rocket 4.0 01:19:15 78° NNE 01:19:15 78° NNE 01:25:08 10° N
Cosmos 2173 Rocket 4.1 01:29:53 69° WNW 01:29:53 69° WNW 01:35:59 10° N
ISS 0.2 01:29:51 10° NNW 01:34:59 - ENE 01:30:09 11° N
Lacrosse 5 rocket 4.3 01:45:17 10° NNW 01:45:36 10° NNW 01:45:54 10° NNW
Cosmos 1725 Rocket 3.9 01:47:31 77° ENE 01:47:31 77° ENE 01:53:26 10° N
Lacrosse 5 4.4 01:57:25 10° WNW 02:00:50 18° NNW 02:04:15 10° NNE
SeaSat 1 3.1 02:01:12 52° NE 02:01:12 52° NE 02:05:49 10° NNW
Tsikada Rocket 3.9 01:54:47 10° N 02:01:05 88° WNW 02:01:05 88° WNW
CZ-2C R/B 4.4 02:20:59 28° WNW 02:20:59 28° WNW 02:23:47 10° NNW
Cosmos 1570 Rocket 4.3 02:24:56 62° NW 02:24:56 62° NW 02:29:47 10° NNE
NOSS 3-3 (A) 4.3 02:24:51 53° W 02:25:44 58° NW 02:32:22 10° NNE
NOSS 3-3 (C) 4.3 02:24:57 54° W 02:25:49 59° NW 02:32:28 10° NNE
Cosmos 2058 Rocket 4.2 02:27:44 38° NNW 02:27:44 38° NNW 02:30:45 10° N
Cosmos 1697 Rocket 4.5 02:26:52 19° ESE 02:27:40 20° E 02:31:39 10° NE
Cosmos 972 Rocket 4.3 02:23:14 10° N 02:28:10 61° ENE 02:28:12 61° ENE
PSLV R/B 4.3 02:23:44 10° NNE 02:27:12 54° N 02:27:12 54° N
Cosmos 2082 4.4 02:25:49 10° NNW 02:31:17 50° ENE 02:33:02 37° ESE
IRS-P3 4.3 02:27:31 10° NNE 02:32:49 60° E 02:32:49 60° E
CZ-2C R/B 4.3 02:29:23 10° NNW 02:33:12 21° WNW 02:33:24 21° WNW
Meteor 2-9 Rocket 4.3 02:33:46 70° WNW 02:33:46 70° WNW 02:39:33 10° N
Cosmos 2346 Rocket 4.3 02:28:04 10° N 02:34:23 87° E 02:35:01 74° SSE
Cosmos 1980 Rocket 4.4 02:34:36 12° ESE 02:36:20 13° E 02:38:57 10° ENE
Cosmos 2219 4.4 02:33:31 10° NW 02:36:49 28° WNW 02:36:49 28° WNW
Meteor 1-15 Rocket 4.3 02:40:55 67° W 02:41:00 68° W 02:46:54 10° N
Cosmos 2227 Rocket 2.5 02:35:58 10° NNW 02:41:38 65° ENE 02:42:57 50° ESE
ATLAS 2AS CENTAUR R/B 3.9 02:40:32 10° NW 02:46:08 30° W 02:46:08 30° W
ATLAS CENTAUR R/B 2.4 02:48:10 48° ESE 02:48:10 48° ESE 02:52:40 10° NE
Cosmos 44 4.5 02:42:53 10° NW 02:45:55 33° WNW 02:45:55 33° WNW
Cosmos 1464 Rocket 4.1 02:49:34 56° SSE 02:50:50 71° E 02:57:09 10° NNE
Meteor 2-5 Rocket 4.1 02:45:16 10° N 02:51:07 62° ENE 02:52:51 44° SE
Cosmos 2233 Rocket 4.2 02:52:10 50° W 02:52:33 51° W 02:58:32 10° N
ARIANE 5 R/B 4.1 02:48:47 10° NE 02:53:04 26° E 02:54:37 23° ESE
SL-08 R/B 3.3 02:54:20 75° ENE 02:54:20 75° ENE 02:58:57 10° N
Resurs 1-4 Rocket 4.0 02:51:25 10° NE 02:55:23 21° E 02:57:35 17° SE
ADEOS 4.2 02:51:14 10° NNE 02:56:15 45° E 02:57:07 42° SE
Cosmos 2278 3.6 02:58:52 71° WSW 02:59:20 77° WNW 03:05:02 10° NNE
Cosmos 2369 3.5 03:00:27 74° SW 03:00:59 84° WNW 03:06:41 10° NNE
Cosmos 2297 Rocket 2.4 02:57:19 10° NNW 03:02:58 68° ENE 03:05:19 35° SE
Okean 3 Rocket 4.2 02:58:50 10° N 03:03:08 50° E 03:03:33 48° E
NPP 3.5 02:59:23 10° NNE 03:04:48 83° WNW 03:05:21 72° SW
ISS -1.3 03:08:08 29° NNE 03:08:24 29° NNE 03:11:19 10° E
Spot 4 Rocket 4.5 03:06:09 10° NNE 03:11:13 55° E 03:12:20 46° SE
BREEZE-M DEB (TANK) 3.5 03:12:28 50° WSW 03:13:50 75° NNW 03:16:56 10° NE
Cosmos 972 4.3 03:09:04 10° NNW 03:13:58 83° ENE 03:14:50 61° SSE
Cosmos 405 Rocket 3.2 03:11:24 10° N 03:14:45 58° NNW 03:14:45 58° NNW
Cosmos 1814 Rocket 3.9 03:16:25 66° SSW 03:17:12 87° ESE 03:22:36 10° NNE
CZ-3A R/B 4.0 03:11:25 33° SSW 03:18:21 72° SE 03:23:39 10° NE
CBERS-1 3.9 03:13:49 10° N 03:18:56 72° WNW 03:19:33 64° WSW
Cosmos 1513 Rocket 4.3 03:18:26 53° SSW 03:19:59 84° W 03:26:05 10° N
BREEZE-M DEB (TANK) 4.2 03:19:23 29° WNW 03:20:30 35° NNW 03:23:49 10° NE
IRS-1D 4.3 03:16:30 10° NNE 03:21:14 43° E 03:22:55 32° SE
Cosmos 2298 Rocket 3.9 03:16:27 10° NNW 03:21:42 64° WSW 03:22:03 63° SW
Cosmos 1766 4.1 03:22:22 42° ESE 03:22:45 44° E 03:26:31 10° NNE
Cosmos 220 Rocket 4.4 03:20:26 10° NNW 03:23:51 49° WNW 03:23:51 49° WNW
Meteor 1-22 Rocket 4.4 03:30:53 38° S 03:33:19 77° E 03:39:27 10° NNE
Meteor 1-24 Rocket 3.8 03:27:38 10° N 03:33:23 80° E 03:36:35 29° SSE
ERS-2 2.3 03:30:21 10° N 03:33:47 65° NW 03:33:47 65° NW
GPS 2-04 Rocket1 3.9 03:36:57 31° SE 03:36:57 31° SE 03:39:19 10° ESE
IRAS Rocket 4.4 03:31:15 10° N 03:36:46 59° WNW 03:38:17 44° WSW
SME Rocket 4.3 03:33:08 21° SSE 03:37:04 79° ENE 03:45:36 10° NNW
Cosmos 1891 Rocket 4.4 03:35:35 45° SW 03:37:19 64° W 03:43:24 10° N
UNKNOWN OBJECT B 4.4 03:34:57 10° NE 03:38:22 28° E 03:39:50 22° SE
SeaSat 1 4.4 03:40:59 15° WNW 03:40:59 15° WNW 03:42:19 10° WNW
USA 161 3.0 03:40:01 33° N 03:40:01 33° N 03:41:44 10° N
SL-24 R/B 4.4 03:37:03 31° SSE 03:39:22 77° ENE 03:43:54 10° N
NOSS 2-1 (D) 4.1 03:39:46 38° WNW 03:40:13 40° NW 03:44:27 10° NNE
Cosmos 990 Rocket 3.9 03:35:43 10° NNW 03:41:01 86° ENE 03:44:12 25° SSE
NOSS 2-1 (C) 4.1 03:41:07 38° WNW 03:41:37 40° NW 03:45:50 10° NNE
Cosmos 468 Rocket 4.4 03:41:26 41° W 03:42:27 46° WNW 03:47:26 10° N
Cosmos 1656 3.8 03:43:30 44° SW 03:45:16 67° WNW 03:50:55 10° NNE
Abrixas 4.4 03:44:06 15° NW 03:46:08 31° NNE 03:48:55 10° E
Okean O Rocket 3.8 03:44:01 10° NE 03:47:23 21° E 03:50:45 10° SE
Cosmos 1758 4.4 03:46:33 26° SE 03:48:16 41° E 03:52:03 10° NNE
EO 1 Del DPAF 3.9 03:47:08 23° SE 03:49:18 53° ENE 03:53:05 10° N
Cosmos 1441 Rocket 3.5 03:46:21 10° N 03:50:20 69° E 03:51:59 33° SSE
Cosmos 2034 Rocket 4.3 03:50:04 37° SW 03:52:11 51° W 03:58:12 10° N
Cosmos 1953 3.1 03:51:07 29° SSE 03:52:50 48° E 03:56:46 10° NNE
Cosmos 1805 4.3 03:51:47 26° SSE 03:53:32 42° E 03:57:15 10° NNE
BREEZE-M DEB (TANK) 4.1 03:47:34 10° WNW 03:52:03 26° W 03:52:03 26° W
Cosmos-2242 3.5 03:53:00 28° SSE 03:55:00 55° E 03:59:12 10° NNE
CZ-2D R/B 2.2 03:50:46 10° NNE 03:56:15 77° ESE 03:59:09 29° S
Cosmos 1707 3.9 03:52:54 10° NNW 03:55:42 28° WNW 03:55:42 28° WNW
Cosmos 1408 Rocket 3.4 03:56:04 10° N 04:00:29 84° W 04:02:31 32° S
SL-16 R/B 2.4 03:56:20 16° S 04:01:20 79° WSW 04:07:32 10° NNW
Nadezhda 4 Rocket 4.0 03:55:44 10° NNW 04:01:51 66° W 04:05:36 25° SSW
Cosmos 836 Rocket 4.5 04:00:48 32° S 04:03:17 81° ESE 04:08:34 10° NNE
Cosmos 1766 Rocket 3.5 03:59:37 10° N 04:04:03 84° W 04:06:21 28° S
MOS 1-B 4.5 03:59:41 10° NNE 04:05:31 74° ESE 04:09:28 21° S
Cosmos 1898 Rocket 4.5 04:02:54 10° NW 04:07:21 27° W 04:07:33 27° WSW
In-Cosmos 22 4.2 04:04:10 10° N 04:09:28 76° E 04:14:46 10° SSE
NOSS 3-4 (A) 3.8 04:03:50 10° NW 04:10:41 57° WSW 04:17:55 10° SSE
NOSS 3-4 (C) 3.9 04:03:56 10° NW 04:10:50 57° WSW 04:18:07 10° SSE
Cosmos 1697 Rocket 3.0 04:08:37 31° SW 04:11:09 55° WNW 04:16:43 10° NNE
Cosmos 1544 4.3 04:09:18 17° SSE 04:11:45 39° E 04:15:11 10° NNE
Cosmos 1125 Rocket 3.7 04:08:34 10° NNW 04:13:47 70° ENE 04:18:56 10° SSE
Cosmos 841 Rocket 3.7 04:11:30 32° SW 04:13:49 58° WNW 04:19:02 10° NNE
GEOS 3 Rocket 3.5 04:12:49 10° SSE 04:18:02 81° SW 04:23:15 10° NW
MTI 3.9 04:16:03 21° SSE 04:18:05 76° ENE 04:21:23 10° N
Cosmos 1937 Rocket 4.3 04:14:14 10° NW 04:18:42 30° W 04:19:44 27° WSW
Cosmos 1980 Rocket 2.2 04:16:23 27° SSW 04:19:33 77° WNW 04:25:14 10° NNE
Cosmos 1763 Rocket 4.0 04:17:33 28° WSW 04:19:51 45° WNW 04:24:50 10° N
Cosmos 1437 3.1 04:18:06 10° N 04:21:26 67° E 04:24:12 14° SSE
Cosmos 332 Rocket 4.2 04:19:33 18° S 04:23:03 58° ESE 04:27:48 10° NNE
CZ-3 R/B 4.1 04:04:24 21° SW 04:24:34 42° S 04:33:34 10° ESE
Cosmos 1842 Rocket 4.1 04:21:03 13° S 04:24:57 58° E 04:29:23 10° NNE
Cosmos 2227 Rocket 3.7 04:21:36 10° WNW 04:24:42 17° W 04:24:42 17° W
Milstar 3 Cent rocket 3.3 04:25:01 23° SSW 04:27:07 29° S 04:33:48 10° ESE
ATLAS CENTAUR R/B 3.3 04:24:30 17° W 04:27:11 25° NW 04:31:19 10° N
RESURS DK-1 3.6 04:24:34 10° NNW 04:28:34 44° ENE 04:32:31 10° SE
Cosmos 1674 3.8 04:26:52 10° N 04:30:30 43° E 04:34:05 10° SSE
Cosmos 2322 Rocket 2.8 04:26:22 12° S 04:31:25 52° ESE 04:36:51 10° NNE
ARIANE 5 R/B 3.3 04:27:34 10° N 04:32:14 36° WNW 04:34:57 21° WSW
Cosmos 2026 Rocket 4.0 04:26:31 10° N 04:32:53 89° E 04:39:08 10° S
CZ-2D R/B 3.5 04:29:26 10° N 04:33:48 80° WNW 04:37:02 18° SSW
Resurs 1-4 Rocket 2.5 04:30:24 10° N 04:35:25 45° WNW 04:38:40 20° SW
Cosmos 1634 Rocket 4.1 04:33:41 17° SSW 04:38:26 59° W 04:44:39 10° N
BREEZE-M DEB (TANK) 3.7 04:36:47 10° WNW 04:39:26 37° NNE 04:44:04 10° E
Cosmos 1461 3.1 04:37:42 10° NNW 04:41:50 69° ENE 04:45:46 10° SE
Cosmos 371 Rocket 3.7 04:38:12 11° S 04:42:48 60° ESE 04:47:32 10° NNE
Cosmos 2195 Rocket 4.4 04:37:51 10° NNW 04:43:56 66° W 04:49:57 10° S
ISS -2.7 04:41:52 10° WNW 04:44:51 33° SW 04:47:48 10° SSE
Cosmos 2297 Rocket 3.7 04:43:08 10° WNW 04:46:20 16° W 04:47:02 15° WSW
Cosmos 540 Rocket 3.4 04:42:54 16° SSW 04:47:03 77° WNW 04:52:16 10° NNE
Cosmos 1470 2.8 04:46:13 10° S 04:50:08 85° E 04:54:08 10° N
PSLV R/B 3.8 04:50:59 10° N 04:54:48 64° WNW 04:58:07 13° SSW
Thor Agena Rocket 3.6 04:50:51 10° SSE 04:55:53 80° ENE 05:00:57 10° NNW
CZ-4B R/B 2.7 04:59:26 10° N 05:03:22 84° WNW 05:07:06 10° SSW
Cosmos 2151 3.3 04:59:35 10° N 05:03:55 72° E 05:08:12 10° SSE
CZ-2C R/B 3.9 04:59:39 10° S 05:04:15 55° W 05:08:48 10° NNW
SL-16 R/B 2.2 04:59:06 10° SSW 05:04:46 89° WNW 05:10:29 10° NNE
Lacrosse 5 rocket 4.3 05:06:18 10° N 05:07:30 11° NNE 05:08:41 10° NE
Cosmos 1538 Rocket 4.3 05:02:22 10° S 05:07:36 73° ESE 05:12:56 10° NNE
Cosmos 1500 Rocket 4.0 05:07:24 10° NNW 05:11:33 41° W 05:15:38 10° SSW
UNKNOWN OBJECT B 4.4 05:09:55 10° NNW 05:12:43 19° WNW 05:15:21 10° WSW
GPS 2-04 Rocket1 3.4 05:11:33 10° WSW 05:15:08 34° SSW 05:18:35 10° SE
Cosmos 1428 Rocket 4.5 05:11:45 10° NNW 05:17:48 63° W 05:23:47 10° S
Cosmos 2263 Rocket 2.8 05:14:26 10° NNW 05:20:00 63° ENE 05:25:29 10° SE
Abrixas 3.0 05:19:18 10° WNW 05:22:11 38° SW 05:25:03 10° SSE
Okean O Rocket 2.5 05:19:52 10° N 05:23:49 33° WNW 05:27:46 10° SW
CZ-4B R/B 3.5 05:19:45 10° N 05:25:06 52° WNW 05:30:21 10° SW
Cosmos 773 Rocket 4.4 05:23:37 10° S 05:28:42 66° ESE 05:33:51 10° NNE
Cosmos 1953 4.5 05:28:00 10° W 05:29:36 12° WNW 05:31:12 10° NW
